Regional Weather Roundup
Issued by NWS

Home | Current Version | Previous Version | Graphics & Text | Print | Product List | Glossary On
Versions: 1 2 3 4 5 6 7 8 9 10 11 12 13 14 15 16 17 18 19 20 21 22 23 24 25 26 27 28 29 30 31 32 33 34 35 36 37 38 39 40 41 42 43 44 45 46 47 48 49 50
000
ASUS43 KOAX 291802
RWRNE

WEATHER ROUNDUP FOR NEBRASKA
NATIONAL WEATHER SERVICE OMAHA NE
100 PM CDT MON JUN 29 2015

NOTES: SATELLITE DATA IS BEING USED TO AUGMENT CLOUD COVER ABOVE
       12000 FEET.
       "FAIR" INDICATES FEW OR NO CLOUDS BELOW 12,000 FEET WITH NO
       SIGNIFICANT WEATHER AND/OR OBSTRUCTIONS TO VISIBILITY.

  * THESE STATIONS DO NOT REPORT WEATHER SUCH AS RAIN...SNOW OR FOG.

NEZ001>004-019>022-054>056-291900-
NEBRASKA PANHANDLE

CITY           SKY/WX    TMP DP  RH WIND       PRES   REMARKS
SCOTTSBLUFF    SUNNY     85  57  38 VRB5      30.15F
6HR MIN TEMP:  60; 6HR MAX TEMP:  85;

ALLIANCE       MOSUNNY   81  62  52 W9        30.14S
6HR MIN TEMP:  60; 6HR MAX TEMP:  82;

CHADRON        SUNNY     83  59  44 CALM      30.10S
6HR MIN TEMP:  64; 6HR MAX TEMP:  84; 6HR PCP:  0.01;

KIMBALL          N/A    N/A N/A N/A MISG        N/A
SIDNEY         PTSUNNY   78  59  51 NW6       30.20F
6HR MIN TEMP:  61; 6HR MAX TEMP:  80;

$$

NEZ057>060-069>072-079>082-291900-
SOUTHWEST NEBRASKA

CITY           SKY/WX    TMP DP  RH WIND       PRES   REMARKS
NORTH PLATTE   SUNNY     89  56  32 N9G16     30.07F
6HR MIN TEMP:  57; 6HR MAX TEMP:  89;

IMPERIAL       MOSUNNY   83  55  38 CALM      30.12R
6HR MIN TEMP:  61; 6HR MAX TEMP:  85;

LEXINGTON      SUNNY     87  58  36 NW7       30.06S
MCCOOK         SUNNY     87  57  35 VRB6      30.07F
6HR MIN TEMP:  59; 6HR MAX TEMP:  87;

$$

NEZ005>010-023>029-035>040-094-291900-
NORTH CENTRAL NEBRASKA

CITY           SKY/WX    TMP DP  RH WIND       PRES   REMARKS
VALENTINE      SUNNY     86  58  38 NW7       30.05S
6HR MIN TEMP:  57; 6HR MAX TEMP:  86;

AINSWORTH      SUNNY     83  59  43 N8G16     30.06S
BROKEN BOW     SUNNY     86  58  38 NW10      30.05S
6HR MIN TEMP:  57; 6HR MAX TEMP:  86;

O`NEILL        SUNNY     82  58  44 NW10G16   30.02F
ORD            SUNNY     83  58  42 NW10G18   30.01F
6HR MIN TEMP:  55; 6HR MAX TEMP:  84;

$$

NEZ041-046>049-061>064-073>077-083>087-291900-
SOUTH CENTRAL NEBRASKA

CITY           SKY/WX    TMP DP  RH WIND       PRES   REMARKS
GRAND ISLAND   SUNNY     83  58  42 N7        30.03S
6HR MIN TEMP:  58; 6HR MAX TEMP:  84;

AURORA         SUNNY     82  58  44 NW7       30.01F
HASTINGS       SUNNY     83  59  44 NW8       30.03F
6HR MIN TEMP:  59; 6HR MAX TEMP:  83;

KEARNEY *      SUNNY     82  57  42 NW10      30.03F
$$

NEZ011>018-030>034-042>045-291900-
NORTHEAST NEBRASKA

CITY           SKY/WX    TMP DP  RH WIND       PRES   REMARKS
NORFOLK        SUNNY     83  61  47 N13       29.98S
6HR MIN TEMP:  62; 6HR MAX TEMP:  83;

BLAIR          MOSUNNY   82  59  46 NW7G17    29.96S
COLUMBUS *     MOSUNNY  N/A N/A N/A MISG        N/A
FREMONT        SUNNY     85  57  37 NW15      29.97S
TEKAMAH        MOSUNNY   85  63  47 NW10      29.94F
6HR MIN TEMP:  65; 6HR MAX TEMP:  85;

$$

NEZ050>053-065>068-078-088>093-291900-
SOUTHEAST NEBRASKA

CITY           SKY/WX    TMP DP  RH WIND       PRES   REMARKS
LINCOLN        MOSUNNY   86  59  39 NW13      29.98S
6HR MIN TEMP:  65; 6HR MAX TEMP:  86;

OMAHA EPPLEY   CLOUDY    84  63  49 NW12      29.95S
6HR MIN TEMP:  66; 6HR MAX TEMP:  84;

FALLS CITY     SUNNY     84  62  47 NW9G18    29.94F
6HR MIN TEMP:  64; 6HR MAX TEMP:  84;

PLATTSMOUTH    MOSUNNY   82  58  44 NW9       29.96S
$$

NEZ044-045-051>053-067-291900-
OMAHA AREA

CITY           SKY/WX    TMP DP  RH WIND       PRES   REMARKS
OMAHA EPPLEY   CLOUDY    84  63  49 NW12      29.95S
6HR MIN TEMP:  66; 6HR MAX TEMP:  84;

BLAIR          MOSUNNY   82  59  46 NW7G17    29.96S
FREMONT        SUNNY     85  57  37 NW15      29.97S
OFFUTT AFB     SUNNY     83  64  53 NW7       29.94S
PLATTSMOUTH    MOSUNNY   82  58  44 NW9       29.96S
$$


USA.gov is the U.S. government's official web portal to all federal, state and local government web resources and services.